Weather in Ludwigshafen

Germany     49°29′15″N   8°23′28″E
temp.,
°C
wind,
m/s
gust,
m/s
humid.,
%
clouds,
%
prec.,
mm/h
press.,
hPa
HPBL,
m
28 february, sun
sun2801:00+4ne38773 0.0 1038481
04:00+3nne26760 0.0 1037435
07:00+2nne23790 0.0 1036161
10:00+5ne25670 0.0 1036426
13:00+10ene35480 0.0 1035918
16:00+11ene35450 0.0 1033908
19:00+8ne25570 0.0 1034260
22:00+6ne26600 0.0 1035205
1 march, mon
mon101:00+5ne25660 0.0 1035180
04:00+4ne22690 0.0 103467
07:00+3ne12690 0.0 103455
10:00+6ne12540 0.0 1033330
13:00+11e13380 0.0 1032782
16:00+12e35460 0.0 1030879
19:00+9ene27660 0.0 1032268
22:00+8ene23690 0.0 1032106
2 march, tue
tue201:00+7ene26710 0.0 1032189
04:00+5e12760 0.0 103268
07:00+4ese11810 0.0 103228
10:00+7se01650 0.0 1033284
13:00+11w11480 0.0 1032507
16:00+12w10440 0.0 1030413
19:00+10nnw11540 0.0 103122
22:00+8nne11670 0.0 103222
3 march, wed
wed301:00+7ene01730 0.0 103222
04:00+6sse01760 0.0 103122
07:00+5sse11790 0.0 103122
10:00+8s13620 0.0 1030267
13:00+12s234927 0.0 1028447
16:00+14sse124318 0.0 1026443
19:00+11se125033 0.0 102523
22:00+9sse225954 0.0 102543
4 march, thu
thu401:00+8s127335 0.0 102342
04:00+7sse228156 0.0 102252
07:00+7sse238576 0.0 1020109
10:00+8s258299 0.1 1019226
13:00+10ssw377999 0.4 1018519
16:00+10ssw3675100 0.1 1016588
19:00+10ssw2778100 0.3 1015479
22:00+9wsw2581100 0.6 1015321